Flag for Germany Weather past 2 weeks in Emmerich am Rhein, North Rhine-Westphalia, Germany

Now
55 °F

Passing clouds.


Feels Like: 52 °F
Forecast: 41 / 52 °F
Wind: 12 mph from Northwest

Location: Niederrhein


UV Index: 3 (Moderate)

Visibility: N/A


Pressure: 29.95 "Hg

Humidity: 55%

Dew point: 39 °F

Location of Emmerich am RheinLocation

Historic Weather in Emmerich am Rhein

°F

Emmerich am Rhein temperature yesterday

Maximum temperature yesterday: 59 °F (at 3:50 PM)
Minimum temperature yesterday: 30 °F (at 5:50 AM)
Average temperature yesterday: 49 °F

Past Weeks' High & Low Weather Summary

 TemperatureHumidityPressure
High73 °F (Apr 3, 3:50 PM)100% (Apr 5, 6:20 AM)30.45 "Hg (Apr 5, 6:20 AM)
Low30 °F (Apr 16, 5:50 AM)27% (Apr 17, 5:50 PM)29.59 "Hg (Apr 3, 11:50 AM)
Average54 °F67%30.06 "Hg
* Reported Apr 2 9:20 PM — Apr 17 9:20 PM, Emmerich am Rhein, Weather by CustomWeather, © 2014

Note: Actual official high and low records may vary slightly from our data, if they occured in-between our weather recording intervals... More about our weather records

Advertising

Historic Weather Conditions — Data for Previous 24 hours

 ConditionsComfort  
Time TempWeatherWind HumidityBarometerVisibility
9:20 PM
Apr 17
57 °FPassing clouds.12 mph48%29.95 "HgN/A
8:50 PM59 °FPassing clouds.9 mph42%29.95 "HgN/A
8:20 PM59 °FSunny.8 mph39%29.95 "Hg10 mi
7:50 PM61 °FSunny.9 mph34%29.95 "Hg10 mi
6:50 PM63 °FSunny.14 mph30%29.98 "Hg10 mi
6:20 PM63 °FPassing clouds.14 mph30%29.98 "HgN/A
5:50 PM63 °FSunny.12 mph27%29.98 "Hg10 mi
5:20 PM64 °FPassing clouds.12 mph28%30.01 "HgN/A
4:50 PM63 °FPassing clouds.15 mph32%30.01 "HgN/A
4:20 PM64 °FPassing clouds.13 mph28%30.01 "HgN/A
3:50 PM64 °FPassing clouds.14 mph28%30.04 "HgN/A
3:20 PM63 °FPassing clouds.13 mph30%30.07 "HgN/A
2:50 PM63 °FSunny.13 mph32%30.07 "Hg10 mi
2:20 PM63 °FPassing clouds.12 mph30%30.09 "HgN/A
1:50 PM61 °FPassing clouds.10 mph34%30.12 "HgN/A
1:20 PM59 °FPassing clouds.12 mph34%30.15 "HgN/A
12:50 PM59 °FPassing clouds.12 mph36%30.15 "HgN/A
12:20 PM59 °FPassing clouds.10 mph36%30.15 "HgN/A
11:50 AM57 °FPassing clouds.9 mph39%30.18 "HgN/A
11:20 AM57 °FRefreshingly cool.10 mph41%30.18 "HgN/A
10:50 AM55 °FPassing clouds.10 mph41%30.21 "HgN/A
10:20 AM54 °FPassing clouds.10 mph44%30.21 "HgN/A
9:50 AM54 °FPassing clouds.10 mph51%30.24 "HgN/A
9:20 AM50 °FSunny.10 mph54%30.24 "Hg10 mi
8:50 AM48 °FSunny.8 mph62%30.24 "Hg10 mi
8:20 AM45 °FClear.7 mph66%30.24 "Hg10 mi
7:50 AM43 °FClear.7 mph71%30.24 "Hg10 mi
7:20 AM41 °FClear.7 mph76%30.24 "Hg10 mi
6:50 AM41 °FClear.6 mph76%30.24 "Hg10 mi
6:20 AM41 °FClear.7 mph76%30.24 "Hg10 mi
5:50 AM41 °FClear.6 mph76%30.27 "Hg10 mi
5:20 AM41 °FClear.6 mph70%30.27 "Hg10 mi
4:50 AM43 °FClear.7 mph66%30.27 "Hg10 mi
11:50 PM
Apr 16
46 °FClear.3 mph57%30.33 "Hg10 mi
10:50 PM46 °FClear.3 mph57%30.33 "Hg10 mi
10:20 PM48 °FSunny.2 mph54%30.33 "Hg10 mi
Weather by CustomWeather, © 2014

See weather overview